Home   Weather   Varel   Past weeks
Flag for Germany

Past Weather in Varel, Lower Saxony, Germany — Yesterday and Last 2 Weeks

Now
45 °F

Broken clouds.


Feels Like: 37 °F
Forecast: 50 / 35 °F
Wind: 16 mph from Northwest

Location: Wittmundhaven

Current Time: Apr 1, 2020 at 7:48:13 pm

Latest Report: Apr 1, 2020 at 6:20 pm


Visibility: N/A

Pressure: 30.04 "Hg

Humidity: 76%

Dew Point: 37 °F

Location of VarelLocation

Past Weather in Varel — Graph

°F

Varel Temperature Yesterday

Maximum temperature yesterday: 45 °F (at 2:20 pm)
Minimum temperature yesterday: 27 °F (at 4:20 am)
Average temperature yesterday: 37 °F

High & Low Weather Summary for the Past Weeks

 TemperatureHumidityPressure
High54 °F (Mar 17, 5:20 pm)100% (Mar 18, 10:20 pm)30.63 "Hg (Mar 18, 10:20 pm)
Low27 °F (Mar 31, 4:20 am)23% (Mar 23, 3:20 pm)30.04 "Hg (Apr 1, 5:20 pm)
Average41 °F62%30.38 "Hg
* Reported Mar 17 5:20 pm — Apr 1 6:20 pm, Varel. Weather by CustomWeather, © 2020

Note: Actual official high and low records may vary slightly from our data, if they occured in-between our weather recording intervals... More about our weather records

Varel Weather History for the Previous 24 Hours

Scroll right to see more
 ConditionsComfort  
Time TempWeatherWind HumidityBarometerVisibility
6:20 pm
Wed, Apr 1
45 °FBroken clouds.16 mph76%30.04 "HgN/A
5:20 pm46 °FBroken clouds.17 mph71%30.04 "HgN/A
4:20 pm46 °FBroken clouds.16 mph66%30.07 "HgN/A
3:20 pm46 °FPartly sunny.16 mph66%30.09 "HgN/A
2:20 pm46 °FBroken clouds.15 mph62%30.09 "HgN/A
1:20 pm46 °FPartly sunny.15 mph71%30.12 "HgN/A
12:20 pm46 °FPartly sunny.14 mph62%30.12 "HgN/A
11:20 am45 °FScattered clouds.16 mph76%30.15 "HgN/A
10:20 am43 °FScattered clouds.12 mph81%30.15 "HgN/A
9:20 am41 °FScattered clouds.10 mph87%30.15 "HgN/A
9:00 am39 °FPassing clouds.9 mph87%30.15 "HgN/A
8:20 am37 °FChilly.5 mph93%30.18 "Hg4 mi
7:20 am37 °FChilly.7 mph87%30.18 "Hg3 mi
6:20 am36 °FChilly.5 mph87%30.18 "Hg5 mi
5:20 am36 °FChilly.7 mph87%30.21 "Hg5 mi
4:20 am36 °FChilly.8 mph81%30.24 "Hg5 mi
3:20 am36 °FChilly.5 mph75%30.24 "Hg5 mi
2:20 am37 °FChilly.5 mph70%30.27 "Hg5 mi
1:20 am36 °FChilly.6 mph70%30.30 "Hg6 mi
12:20 am34 °FChilly.6 mph70%30.33 "Hg5 mi
11:20 pm
Tue, Mar 31
36 °FChilly.3 mph65%30.33 "Hg5 mi
10:20 pm34 °FPassing clouds.5 mph65%30.36 "HgN/A
9:20 pm36 °FPassing clouds.3 mph60%30.39 "HgN/A
8:20 pm37 °FPassing clouds.3 mph56%30.39 "HgN/A
7:20 pm41 °FPassing clouds.7 mph49%30.39 "HgN/A
Weather by CustomWeather, © 2020

See weather overview

Advertising